Location: Asheville, NC
(35.6000°N, 82.5500°W)
Time: 03:57:54
(UTC-04:00)

ISS - Pass Details

Date: 09 October 2017
Orbit: 401 x 408 km, 51.6° (Epoch: 18 October)

Event Time Altitude Azimuth Distance (km) Brightness Sun altitude
Rises 20:34:22 0° 327° (NNW) 2,322 0.6 -19.5°
Reaches altitude 10° 20:37:29 10° 359° (N) 1,462 -0.9 -20.1°
Enters shadow 20:37:54 11° 6° (N) 1,400 -1.1 -20.2°
